KG5APU Weather Reports


time (UTC)temp
F
wind
direction
speed
knots
gust
knots
rain 1hr
in
rain 24hr
in
rain mn
in
humidity
%
barometer
mb
20260505230138 84 138 1.7 2.6 0.00 0.00 0.00 71 1004.4
20260505225137 85 155 4.3 6.1 0.00 0.00 0.00 71 1004.6
20260505224137 85 191 4.3 6.1 0.00 0.00 0.00 69 1004.6
20260505223136 86 175 4.3 7.8 0.00 0.00 0.00 68 1004.2
20260505222135 86 164 4.3 5.2 0.00 0.00 0.00 68 1004.4
20260505221134 88 154 1.7 2.6 0.00 0.00 0.00 65 1004.3
20260505220129 87 162 4.3 5.2 0.00 0.00 0.00 65 1004.4
20260505215125 87 171 1.7 1.7 0.00 0.00 0.00 67 1004.5
20260505214125 88 167 3.5 4.3 0.00 0.00 0.00 62 1004.6
20260505213124 87 219 5.2 6.1 0.00 0.00 0.00 58 1004.6
20260505212124 88 168 2.6 2.6 0.00 0.00 0.00 64 1004.8
20260505211124 88 209 2.6 4.3 0.00 0.00 0.00 62 1004.6
20260505210123 88 199 5.2 6.1 0.00 0.00 0.00 61 1004.9
20260505205119 87 220 6.1 7.0 0.00 0.00 0.00 63 1004.8
20260505204113 87 165 1.7 1.7 0.00 0.00 0.00 65 1005.4
20260505203113 86 217 6.1 7.0 0.00 0.00 0.00 66 1005.3
20260505202110 86 229 7.0 8.7 0.00 0.00 0.00 64 1005.3
20260505201105 86 205 5.2 6.1 0.00 0.00 0.00 68 1005.4
20260505200105 86 214 4.3 8.7 0.00 0.00 0.00 67 1005.4
20260505195105 85 171 3.5 5.2 0.00 0.00 0.00 69 1005.4
20260505194103 84 206 6.1 7.0 0.00 0.00 0.00 68 1005.6
20260505193104 85 231 2.6 4.3 0.00 0.00 0.00 68 1005.6
20260505192059 84 226 3.5 4.3 0.00 0.00 0.00 70 1005.4
20260505191055 83 211 6.1 7.8 0.00 0.00 0.00 69 1005.5
20260505190052 83 211 5.2 8.7 0.00 0.00 0.00 69 1005.6
20260505185051 83 204 4.3 7.8 0.00 0.00 0.00 70 1005.6
20260505184050 82 165 4.3 7.8 0.00 0.00 0.00 71 1005.7
20260505183045 82 187 4.3 7.0 0.00 0.00 0.00 72 1005.6
20260505182043 82 211 7.0 8.7 0.00 0.00 0.00 70 1006.0
20260505181044 82 186 7.0 7.8 0.00 0.00 0.00 70 1005.8
20260505180043 83 157 3.5 5.2 0.00 0.00 0.00 70 1005.8
20260505175040 81 191 2.6 4.3 0.00 0.00 0.00 73 1005.8
20260505174039 81 184 4.3 6.1 0.00 0.00 0.00 72 1005.9
20260505173039 81 196 5.2 7.0 0.00 0.00 0.00 72 1006.0
20260505172038 81 170 5.2 7.0 0.00 0.00 0.00 73 1006.0
20260505171036 81 215 2.6 2.6 0.00 0.00 0.00 73 1006.2
20260505170035 81 200 7.8 9.6 0.00 0.00 0.00 71 1006.1
20260505165032 80 232 8.7 9.6 0.00 0.00 0.00 73 1006.1
20260505164032 80 174 6.1 8.7 0.00 0.00 0.00 74 1006.1
20260505163027 79 222 5.2 7.8 0.00 0.00 0.00 76 1005.9
20260505162023 79 164 7.0 11.3 0.00 0.00 0.00 76 1006.0
20260505161023 78 173 6.1 9.6 0.00 0.00 0.00 76 1005.7
20260505153015 77 123 3.5 6.1 0.00 0.00 0.00 79 1005.7
20260505152013 76 160 2.6 4.3 0.00 0.00 0.00 80 1005.8
20260505151011 75 190 8.7 9.6 0.00 0.00 0.00 81 1006.0
20260505124949 71 196 3.5 5.2 0.00 0.00 0.00 86 1005.8
20260505123947 71 165 4.3 5.2 0.00 0.00 0.00 86 1005.6
20260505122946 71 190 3.5 6.1 0.00 0.00 0.00 86 1005.3
20260505121946 71 174 5.2 8.7 0.00 0.00 0.00 86 1005.5
20260505120944 71 202 4.3 7.0 0.00 0.00 0.00 86 1004.9
20260505115940 71 196 6.1 8.7 0.00 0.00 0.00 86 1005.0
20260505114935 71 232 1.7 4.3 0.00 0.00 0.00 86 1005.0
20260505113934 71 188 4.3 5.2 0.00 0.00 0.00 86 1005.0
20260505112932 71 159 7.0 8.7 0.00 0.00 0.00 86 1004.9
20260505111931 71 193 2.6 4.3 0.00 0.00 0.00 86 1005.1
20260505110929 71 157 6.1 7.8 0.00 0.00 0.00 86 1004.8
20260505101926 71 166 3.5 6.1 0.00 0.00 0.00 86 1004.9
20260505100922 71 229 4.3 5.2 0.00 0.00 0.00 86 1004.8
20260505095921 71 179 4.3 6.1 0.00 0.00 0.00 85 1005.0
20260505094920 71 214 8.7 13.9 0.00 0.00 0.00 86 1005.1
20260505093919 71 202 10.4 14.8 0.00 0.00 0.00 86 1005.1
20260505092919 71 208 7.0 9.6 0.00 0.00 0.00 86 1005.3
20260505091914 71 221 7.0 8.7 0.00 0.00 0.00 86 1005.3
20260505090909 71 217 6.1 8.7 0.00 0.00 0.00 86 1005.3
20260505085904 71 166 4.3 7.0 0.00 0.00 0.00 86 1005.0
20260505084900 71 182 4.3 5.2 0.00 0.00 0.00 86 1005.1
20260505083856 71 177 5.2 6.1 0.00 0.00 0.00 86 1005.0
20260505082855 71 163 6.1 8.7 0.00 0.00 0.00 86 1005.0
20260505081854 71 95 6.1 11.3 0.00 0.00 0.00 86 1005.4
20260505080853 71 226 4.3 8.7 0.00 0.00 0.00 85 1005.4
20260505075851 71 180 6.1 7.8 0.00 0.00 0.00 85 1005.4
20260505074845 71 156 4.3 7.8 0.00 0.00 0.00 85 1005.7
20260505073845 71 202 7.8 8.7 0.00 0.00 0.00 84 1005.9
20260505072846 71 238 7.8 11.3 0.00 0.00 0.00 84 1006.1
20260505071844 71 222 2.6 4.3 0.00 0.00 0.00 84 1006.3
20260505070839 72 166 8.7 12.2 0.00 0.00 0.00 83 1006.0
20260505065836 72 214 5.2 8.7 0.00 0.00 0.00 83 1006.2
20260505064836 72 182 4.3 6.1 0.00 0.00 0.00 83 1006.7
20260505063831 72 153 6.1 12.2 0.00 0.00 0.00 82 1006.4
20260505062830 72 218 5.2 7.0 0.00 0.00 0.00 82 1006.4
20260505061829 72 164 5.2 6.1 0.00 0.00 0.00 82 1006.6
20260505060825 72 176 7.8 9.6 0.00 0.00 0.00 82 1006.5
20260505055823 72 138 7.8 9.6 0.00 0.00 0.00 81 1006.5
20260505054823 71 223 4.3 7.8 0.00 0.00 0.00 81 1006.8
20260505053818 72 166 2.6 2.6 0.00 0.00 0.00 80 1007.0
20260505052817 72 171 5.2 7.8 0.00 0.00 0.00 80 1007.0
20260505051816 72 187 4.3 6.1 0.00 0.00 0.00 79 1006.9
20260505050812 72 203 4.3 5.2 0.00 0.00 0.00 79 1007.1
20260505040803 73 172 3.5 4.3 0.00 0.00 0.00 77 1007.4
20260505035803 73 120 4.3 7.0 0.00 0.00 0.00 76 1007.3
20260505034802 73 193 2.6 2.6 0.00 0.00 0.00 76 1007.2
20260505033802 73 178 1.7 1.7 0.00 0.00 0.00 75 1007.0
20260505032757 74 99 4.3 6.1 0.00 0.00 0.00 75 1007.4
20260505031756 74 151 4.3 5.2 0.00 0.00 0.00 75 1007.3
20260505030756 74 194 2.6 2.6 0.00 0.00 0.00 75 1007.5
20260505025753 74 202 6.1 8.7 0.00 0.00 0.00 74 1007.4
20260505024749 74 160 0.9 1.7 0.00 0.00 0.00 74 1007.4
20260505023749 74 185 3.5 4.3 0.00 0.00 0.00 73 1007.4
20260505022749 74 189 3.5 4.3 0.00 0.00 0.00 73 1007.2
20260505021749 74 169 4.3 6.1 0.00 0.00 0.00 73 1007.2
20260505020747 75 185 5.2 7.0 0.00 0.00 0.00 72 1007.2
20260505015746 75 145 6.1 7.8 0.00 0.00 0.00 72 1007.3
20260505014746 75 120 4.3 6.1 0.00 0.00 0.00 71 1007.0
20260505013745 75 153 5.2 7.8 0.00 0.00 0.00 71 1007.2
20260505012740 75 189 2.6 2.6 0.00 0.00 0.00 70 1007.2
20260505011739 75 206 6.1 7.8 0.00 0.00 0.00 70 1007.0
20260505010738 75 192 4.3 5.2 0.00 0.00 0.00 69 1007.1
20260505005737 76 145 3.5 5.2 0.00 0.00 0.00 68 1007.0
20260505004737 76 155 5.2 7.0 0.00 0.00 0.00 67 1007.0
20260505003736 77 188 9.6 13.0 0.00 0.00 0.00 66 1007.3
20260505002736 77 91 5.2 7.8 0.00 0.00 0.00 65 1007.2
20260505001737 78 133 5.2 9.6 0.00 0.00 0.00 65 1007.4
20260505000737 78 198 7.8 9.6 0.00 0.00 0.00 63 1007.4
20260504235736 78 201 3.5 4.3 0.00 0.00 0.00 63 1007.1
20260504234736 78 196 7.8 13.0 0.00 0.00 0.00 63 1007.4
20260504233735 78 208 6.1 9.6 0.00 0.00 0.00 63 1007.2
20260504232734 78 106 7.0 8.7 0.00 0.00 0.00 62 1007.5
20260504231734 79 174 7.0 8.7 0.00 0.00 0.00 62 1007.5